Location: Igon
(43.1667°N, 0.2333°W)
Time: 21:18:13
(UTC+00:00)

USA 238 DEB - Pass Details

Date: 29 November 2020
Orbit: 997 x 1215 km, 63.4° (Epoch: 11 January)

Event Time Altitude Azimuth Distance (km) Brightness Sun altitude
Exits shadow 04:45:56 39° 230° (SW) 1,698 4.4 -25.9°
Drops below altitude 10° 04:52:02 10° 179° (S) 3,141 6.2 -24.8°
Sets 04:54:59 0° 172° (S) 4,112 7.0 -24.2°
